Regional Weather Roundup
Issued by NWS

Home | Current Version | Previous Version | Text Only | Print | Product List | Glossary Off
Versions: 1 2 3 4 5 6 7 8 9 10 11 12 13 14 15 16 17 18 19 20 21 22 23 24 25 26 27 28 29 30 31 32 33 34 35 36 37 38 39 40 41 42 43 44 45 46 47 48 49 50

000
ASUS45 KCYS 020210
RWRWY

WYOMING REGIONAL WEATHER ROUNDUP
NATIONAL WEATHER SERVICE CHEYENNE WY
800 PM MDT MON SEP 01 2014

NOTE:  "FAIR" INDICATES FEW OR NO CLOUDS BELOW 12,000 FEET
WITH NO SIGNIFICANT WEATHER AND/OR OBSTRUCTIONS TO VISIBILITY.

WYZ001-020300-
YELLOWSTONE NATIONAL PARK

CITY           SKY/WX    TMP DP  RH WIND       PRES   REMARKS
LK YELLOWSTONE   N/A     48  37  65 CALM      30.22R
W YELLOWSTONE  NOT AVBL

$$
WYZ002>013-054>058-071-098>099-020300-
NORTHERN WYOMING

CITY           SKY/WX    TMP DP  RH WIND       PRES   REMARKS
JACKSON        NOT AVBL
CODY             N/A    N/A N/A N/A MISG        N/A
GREYBULL       CLEAR     66  42  41 E5        29.95S
WORLAND        CLEAR     61  46  57 E5        29.96S
SHERIDAN       CLEAR     54  46  74 S8        29.98S
BUFFALO        CLEAR     54  43  66 SW7       30.05R
GILLETTE       CLEAR     50  45  83 SW8       30.02R
HULETT         FAIR      55  39  54 MISG      30.01
NEWCASTLE      FAIR      54  39  58 N5        30.03

$$
WYZ014>020-022>026-101>103-020300-
CENTRAL WYOMING

CITY           SKY/WX    TMP DP  RH WIND       PRES   REMARKS
BIG PINEY      CLEAR     55  34  45 N8        30.18R
PINEDALE       CLEAR     54  32  43 W7        30.19R
DUBOIS         FAIR      54  28  37 NW9       30.14R
LANDER         CLEAR     64  30  27 SW12      30.03R
RIVERTON       CLEAR     64  29  26 NW14      30.04R
CASPER         CLEAR     59  38  45 E5        30.06R
DOUGLAS        CLEAR     55  45  68 CALM      30.08R

$$
WYZ021-027>030-104>119-020300-
SOUTHERN WYOMING

CITY           SKY/WX    TMP DP  RH WIND       PRES   REMARKS
EVANSTON       PTCLDY    59  33  37 W8        30.21S
KEMMERER       CLEAR     55  32  41 W7        30.21F
FORT BRIDGER   FAIR      63  33  32 W8        30.22S
ROCK SPRINGS   CLEAR     62  27  26 W10       30.17R
DIXON          FAIR      61  40  45 W5        30.17S
RAWLINS        CLEAR     63  25  23 W14G21    30.15R
SARATOGA       FAIR      55  32  41 W9        30.17R
LARAMIE        MOCLDY    58  31  35 NW9       30.17R
CHEYENNE       MOCLDY    60  43  53 NE8       30.12R
TORRINGTON     PTCLDY    58  46  64 E5        30.03R
PINE BLUFFS    FAIR      59  46  63 N9        30.07R

$$



USA.gov is the U.S. government's official web portal to all federal, state and local government web resources and services.